This is the latest recevied weather packets stored in our database for station/object HS2XQB-3. If no packets are shown the sender has not sent any weather packets the latest 10 day(s).
| Time | Temp. | Humidity | Pressure | Rain* | Wind** | Luminosity | Snow |
|---|---|---|---|---|---|---|---|
| 1788493464 | 39.44° C | 49% | 1006 hPa | - | - | 0 W/m² | - |
| 1788491642 | 38.89° C | 51% | 1006 hPa | - | - | 0 W/m² | - |
| 1788489820 | 38.33° C | 53% | 1006 hPa | - | - | 0 W/m² | - |
| 1788487998 | 36.67° C | 58% | 1006 hPa | - | - | 0 W/m² | - |
| 1788486176 | 35° C | 63% | 1006 hPa | - | - | 0 W/m² | - |
| 1788484353 | 34.44° C | 66% | 1006 hPa | - | - | 0 W/m² | - |
| 1788482531 | 32.78° C | 71% | 1006 hPa | - | - | 0 W/m² | - |
| 1788480709 | 30.56° C | 74% | 1005 hPa | - | - | 0 W/m² | - |
| 1788478887 | 29.44° C | 76% | 1005 hPa | - | - | 0 W/m² | - |
| 1788477065 | 29.44° C | 75% | 1004 hPa | - | - | 0 W/m² | - |
| 1788475243 | 29.44° C | 74% | 1004 hPa | - | - | 0 W/m² | - |
| 1788473427 | 29.44° C | 73% | 1004 hPa | - | - | 0 W/m² | - |
| 1788471599 | 29.44° C | 73% | 1004 hPa | - | - | 0 W/m² | - |
| 1788469777 | 29.44° C | 72% | 1004 hPa | - | - | 0 W/m² | - |
| 1788467955 | 29.44° C | 71% | 1004 hPa | - | - | 0 W/m² | - |
| 1788466133 | 28.89° C | 71% | 1004 hPa | - | - | 0 W/m² | - |
| 1788464284 | 28.89° C | 70% | 1004 hPa | - | - | 0 W/m² | - |
| 1788462476 | 28.89° C | 68% | 1004 hPa | - | - | 0 W/m² | - |
| 1788460639 | 28.33° C | 67% | 1004 hPa | - | - | 0 W/m² | - |
| 1788458817 | 27.78° C | 66% | 1004 hPa | - | - | 0 W/m² | - |
| 1788456995 | 27.78° C | 68% | 1005 hPa | - | - | 0 W/m² | - |
| 1788455173 | 26.67° C | 61% | 1005 hPa | - | - | 0 W/m² | - |
| 1788453351 | 23.89° C | 47% | 1005 hPa | - | - | 0 W/m² | - |
| 1788451529 | 22.22° C | 41% | 1006 hPa | - | - | 0 W/m² | - |
| 1788449707 | 22.22° C | 42% | 1006 hPa | - | - | 0 W/m² | - |
* Rain since midnight (hover to see other rain measurements)
** Current wind speed in m/s (hover to see current wind gust speed)